Location: Byszew
(52.1813°N, 19.2693°E)
Time: 21:39:32
(UTC+00:00)

GP-B - Pass Details

Date: 03 March 2021
Orbit: 631 x 635 km, 89.8° (Epoch: 16 April)

Event Time Altitude Azimuth Distance (km) Brightness Sun altitude
Rises 17:45:42 0° 169° (SSE) 2,920 6.3 -13.0°
Reaches altitude 10° 17:47:55 10° 166° (SSE) 2,017 5.5 -13.3°
Maximum altitude 17:52:18 66° 85° (E) 700 3.0 -14.0°
Drops below altitude 10° 17:56:44 10° 4° (N) 2,035 5.8 -14.6°
Sets 17:58:59 0° 1° (N) 2,948 6.6 -15.0°
